[[{"header":{"parameterUnit":"m.s-1","parameterCategory":1,"la1":30.2991,"la2":30.254,"lo1":-89.0895,"lo2":-89.0444,"dy":0.0017,"dx":0.0017,"nx":28,"ny":28,"refTime":"2024-05-02T21:00:00:Z","depth":0,"parameterNumber":2,"parameterNumberName":"U-component_of_WINDS"},"data":[0,0,0,0,0,0,0,0,0,0,0,0,0,0,0,0,0,0,0,0,0,0,0,0,0,0,0,0,0,0,0,0,0,0,0,0,0,0,0,0,0,0,0,0,0,0,0,0,0,0,0,0,0,0,0,0,0,0,-1.8959,-1.8959,0,-1.8883,-1.8882,-1.8881,-1.8812,-1.8811,-1.881,-1.8809,-1.8728,-1.8727,-1.8725,0,0,0,0,0,0,0,0,0,0,0,0,0,-1.9045,-1.9044,-1.896,-1.8959,-1.8958,-1.8883,-1.8882,-1.8881,-1.8812,-1.8811,-1.881,-1.8809,-1.8729,-1.8727,-1.8725,0,0,0,0,0,0,0,0,0,0,0,0,0,-1.8992,-1.9043,-1.896,-1.8914,-1.8909,-1.8883,-1.8882,-1.888,-1.8812,-1.8811,-1.8809,-1.8808,-1.8729,-1.8727,-1.8725,-1.8737,0,0,-1.8719,-1.8718,0,0,0,0,0,0,0,0,-1.8995,-1.8989,-1.8922,-1.8917,-1.8912,-1.8855,-1.8882,-1.8832,-1.8812,-1.8849,-1.8809,-1.8808,-1.8771,-1.8766,-1.8754,-1.8733,-1.8729,-1.8718,-1.8717,-1.8716,-1.8716,0,0,0,0,0,0,0,-1.8999,-1.8992,-1.8929,-1.8921,-1.8915,-1.8897,-1.8888,-1.8872,-1.8818,-1.8846,-1.884,-1.8832,-1.8768,-1.8756,-1.8751,-1.8728,-1.8718,-1.8717,-1.8715,-1.8714,-1.8712,-1.8713,0,0,0,0,0,0,-1.901,-1.8995,-1.8931,-1.8927,-1.8951,-1.8897,-1.8887,-1.8875,-1.8818,-1.8808,-1.8833,-1.8829,-1.876,-1.8754,-1.8748,-1.8757,-1.8716,-1.8714,-1.8713,-1.8711,-1.8713,-1.8714,0,0,0,0,0,0,-1.9012,-1.9005,-1.8935,-1.896,-1.8949,-1.8896,-1.8884,-1.8874,-1.8861,-1.8809,-1.8798,-1.8831,-1.8759,-1.8751,-1.874,-1.8754,-1.8713,-1.8711,-1.871,-1.8712,-1.8713,-1.8776,0,0,0,0,0,0,-1.9014,-1.9006,-1.901,-1.896,-1.8948,-1.8928,-1.8885,-1.8873,-1.8858,-1.8852,-1.8804,-1.8794,-1.8757,-1.8744,-1.8738,-1.875,-1.871,-1.8708,-1.871,-1.8713,-1.8773,-1.878,-1.8786,0,0,0,0,0,-1.9018,-1.903,-1.9011,-1.9003,-1.8953,-1.8929,-1.8922,-1.888,-1.886,-1.8863,-1.8829,-1.8796,-1.8754,-1.8743,-1.8736,-1.8748,-1.8707,-1.871,-1.8712,-1.877,-1.8778,-1.8786,0,0,0,0,0,0,-1.9082,-1.9023,-1.9,-1.8997,-1.8969,-1.8918,-1.892,-1.8891,-1.8867,-1.8862,-1.881,-1.88,-1.8794,-1.877,-1.8759,-1.8756,-1.8726,-1.8727,-1.8772,-1.878,-1.8786,-1.8791,-1.8708,0,0,0,0,0,-1.9096,-1.9083,-1.9032,-1.9034,-1.9021,-1.8974,-1.8962,-1.8932,-1.89,-1.8888,-1.8853,-1.8823,-1.8802,-1.879,-1.8768,-1.877,-1.8757,-1.8774,-1.8781,-1.8787,-1.8788,-1.8786,-1.8793,-1.8723,-1.8723,-1.8723,0,0,-1.9125,-1.9091,-1.9085,-1.9046,-1.9021,-1.9007,-1.8964,-1.8952,-1.8941,-1.8885,-1.8872,-1.8846,-1.8809,-1.8804,-1.88,-1.8784,-1.8805,-1.879,-1.8795,-1.8793,-1.8789,-1.8796,-1.8802,-1.8724,-1.8724,-1.8724,0,0,-1.9169,-1.9143,-1.9141,-1.9117,-1.9079,-1.9048,-1.9048,-1.9001,-1.8982,-1.8969,-1.8927,-1.8913,-1.888,-1.8854,-1.8837,-1.8874,-1.8842,-1.8869,-1.8903,-1.8902,-1.8907,-1.8912,-1.8924,-1.8929,-1.8871,-1.8871,-1.8871,0,-1.9209,-1.9188,-1.9144,-1.9135,-1.9118,-1.9069,-1.9067,-1.9045,-1.9002,-1.8992,-1.8974,-1.8931,-1.8903,-1.8891,-1.89,-1.8888,-1.8886,-1.8873,-1.891,-1.8915,-1.8918,-1.8929,-1.8934,-1.8874,-1.8874,-1.8873,-1.8873,0,-1.9238,-1.9224,-1.9227,-1.9188,-1.9172,-1.9166,-1.9122,-1.9111,-1.9083,-1.9053,-1.904,-1.9005,-1.8975,-1.897,-1.8943,-1.8955,-1.8945,-1.892,-1.8888,-1.8929,-1.8938,-1.8942,-1.8879,-1.8878,-1.8877,-1.8876,0,0,-1.9319,-1.9257,-1.9258,-1.924,-1.9195,-1.9183,-1.9175,-1.9147,-1.9138,-1.9111,-1.9102,-1.9076,-1.9052,-1.9033,-1.9002,-1.9001,-1.9031,-1.8976,-1.8974,-1.8986,-1.9041,-1.9059,-1.9065,-1.9011,-1.9011,-1.9012,-1.9044,0,-1.9355,-1.9338,-1.9299,-1.9294,-1.928,-1.9234,-1.9227,-1.9198,-1.9171,-1.9155,-1.9124,-1.9105,-1.9076,-1.9064,-1.9062,-1.9028,-1.9041,-1.9026,-1.9001,-1.9,-1.901,-1.9069,-1.9088,-1.912,-1.9047,-1.9048,-1.9048,0,-1.9394,-1.937,-1.9364,-1.932,-1.9313,-1.9307,-1.9278,-1.9264,-1.9231,-1.9211,-1.919,-1.9157,-1.9145,-1.9118,-1.91,-1.9091,-1.9078,-1.9061,-1.9061,-1.9055,-1.9025,-1.9064,-1.9129,-1.9133,-1.9053,-1.9053,-1.9053,0,-1.9452,-1.9418,-1.941,-1.9396,-1.9345,-1.9342,-1.9321,-1.9286,-1.9272,-1.9247,-1.9237,-1.9211,-1.9196,-1.9176,-1.9136,-1.912,-1.9123,-1.9092,-1.9105,-1.9106,-1.9106,-1.9106,-1.9168,-1.9101,-1.9101,-1.9101,-1.9101,0,-1.9495,-1.9492,-1.9435,-1.943,-1.9426,-1.9382,-1.9379,-1.9353,-1.9323,-1.9312,-1.9271,-1.926,-1.9209,-1.9193,-1.9162,-1.9152,-1.9146,-1.9129,-1.912,-1.9131,-1.9133,-1.9121,-1.9117,-1.9102,-1.9102,-1.9102,-1.9102,0,-1.9558,-1.952,-1.9508,-1.9461,-1.945,-1.9448,-1.9408,-1.9401,-1.9372,-1.9358,-1.9352,-1.9306,-1.9284,-1.9243,-1.9211,-1.919,-1.9186,-1.9172,-1.9197,-1.9192,-1.9206,-1.9205,-1.9261,-1.9266,-1.9198,-1.9199,-1.9199,0,-1.9587,-1.9584,-1.9538,-1.9528,-1.9508,-1.9492,-1.9477,-1.9434,-1.9421,-1.9383,-1.938,-1.9357,-1.9335,-1.9303,-1.9266,-1.9241,-1.9225,-1.9247,-1.9221,-1.9232,-1.9223,-1.9223,-1.9222,-1.9252,-1.9253,-1.9253,-1.9254,0,-1.9642,-1.9624,-1.9605,-1.9579,-1.9563,-1.9541,-1.9516,-1.951,-1.9461,-1.9448,-1.9426,-1.9409,-1.9377,-1.9353,-1.9323,-1.9299,-1.9268,-1.9263,-1.9264,-1.9275,-1.9289,-1.928,-1.9211,-1.9261,-1.9261,-1.926,-1.926,-1.9259,-1.9688,-1.9683,-1.965,-1.963,-1.9607,-1.9586,-1.9577,-1.9547,-1.9528,-1.9498,-1.9474,-1.9455,-1.9422,-1.9378,-1.9357,-1.934,-1.9325,-1.9328,-1.9328,-1.9329,-1.9333,-1.9293,-1.9335,-1.9335,-1.9334,-1.9334,-1.9334,0,-1.974,-1.9717,-1.9699,-1.9666,-1.9651,-1.9624,-1.9596,-1.9584,-1.9568,-1.954,-1.952,-1.9495,-1.9472,-1.9434,-1.9408,-1.9402,-1.9387,-1.9396,-1.9395,-1.939,-1.9348,-1.9349,-1.9409,-1.9409,-1.9409,-1.9409,-1.9409,-1.9409,-1.9765,-1.9755,-1.9733,-1.9712,-1.9688,-1.9669,-1.9655,-1.9634,-1.9612,-1.9587,-1.9568,-1.9543,-1.9511,-1.9483,-1.946,-1.9449,-1.9441,-1.9455,-1.9439,-1.94,-1.9393,-1.9387,-1.9387,-1.9454,-1.9454,-1.9482,-1.9483,-1.9483]},{"header":{"parameterUnit":"m.s-1","parameterCategory":1,"la1":30.2991,"la2":30.254,"lo1":-89.0895,"lo2":-89.0444,"dy":0.0017,"dx":0.0017,"nx":28,"ny":28,"refTime":"2024-05-02T21:00:00:Z","depth":0,"parameterNumber":3,"parameterNumberName":"V-component_of_WINDS"},"data":[0,0,0,0,0,0,0,0,0,0,0,0,0,0,0,0,0,0,0,0,0,0,0,0,0,0,0,0,0,0,0,0,0,0,0,0,0,0,0,0,0,0,0,0,0,0,0,0,0,0,0,0,0,0,0,0,0,0,1.0771,1.0771,0,1.0764,1.0764,1.0764,1.0734,1.0733,1.0732,1.0732,1.0725,1.0725,1.0726,0,0,0,0,0,0,0,0,0,0,0,0,0,1.0757,1.0758,1.0771,1.0771,1.077,1.0764,1.0764,1.0764,1.0734,1.0733,1.0732,1.0731,1.0725,1.0725,1.0726,0,0,0,0,0,0,0,0,0,0,0,0,0,1.0758,1.0758,1.0771,1.0755,1.0753,1.0764,1.0764,1.0764,1.0734,1.0733,1.0732,1.0731,1.0724,1.0725,1.0726,1.0751,0,0,1.0728,1.0728,0,0,0,0,0,0,0,0,1.0758,1.0759,1.0757,1.0756,1.0754,1.0749,1.0757,1.076,1.0734,1.0741,1.0732,1.0731,1.0734,1.0733,1.0735,1.0751,1.0751,1.0728,1.0728,1.0729,1.0729,0,0,0,0,0,0,0,1.0758,1.0759,1.0768,1.0757,1.0755,1.0748,1.0747,1.0757,1.0743,1.0741,1.0739,1.0738,1.0733,1.0734,1.0734,1.0751,1.0728,1.0729,1.0729,1.0729,1.079,1.0791,0,0,0,0,0,0,1.076,1.0759,1.0768,1.0768,1.0754,1.0749,1.0748,1.0752,1.0743,1.0741,1.0739,1.0737,1.0733,1.0733,1.0734,1.0764,1.0729,1.0729,1.073,1.0788,1.079,1.0791,0,0,0,0,0,0,1.076,1.0761,1.0768,1.0763,1.0763,1.0751,1.0755,1.0752,1.0753,1.0742,1.074,1.0743,1.0732,1.0733,1.0748,1.0764,1.073,1.073,1.0787,1.0789,1.079,1.0825,0,0,0,0,0,0,1.076,1.0761,1.0771,1.0763,1.0764,1.0782,1.0756,1.0753,1.0755,1.0752,1.0745,1.0743,1.0732,1.0747,1.0748,1.0764,1.0731,1.0786,1.0788,1.079,1.0822,1.0828,1.0832,0,0,0,0,0,1.0759,1.078,1.0772,1.0773,1.0775,1.0783,1.0784,1.077,1.0756,1.0766,1.0759,1.0743,1.0762,1.0749,1.075,1.0766,1.0784,1.0787,1.079,1.082,1.0827,1.0832,0,0,0,0,0,0,1.079,1.0779,1.0769,1.0788,1.0787,1.0778,1.079,1.0777,1.078,1.0777,1.076,1.0759,1.0776,1.0773,1.0758,1.0791,1.0771,1.0774,1.0793,1.0799,1.0804,1.0805,1.0731,0,0,0,0,0,1.0799,1.0806,1.0796,1.0814,1.0814,1.0802,1.0805,1.0795,1.0793,1.0793,1.0787,1.0785,1.0791,1.0795,1.0799,1.0822,1.082,1.0834,1.0839,1.0843,1.0846,1.0858,1.0865,1.08,1.08,1.08,0,0,1.0817,1.0812,1.0818,1.082,1.0818,1.0827,1.0802,1.0812,1.0818,1.0794,1.0808,1.0804,1.0801,1.082,1.0829,1.0818,1.0863,1.0846,1.0849,1.085,1.0862,1.0868,1.0873,1.0802,1.0801,1.0801,0,0,1.0855,1.0852,1.0867,1.0866,1.0863,1.0855,1.0859,1.0853,1.0849,1.0863,1.0845,1.0853,1.0862,1.0862,1.0863,1.0902,1.0888,1.0904,1.093,1.0943,1.0948,1.0952,1.0967,1.0973,1.0907,1.0907,1.0907,0,1.0878,1.089,1.0876,1.0887,1.0889,1.0869,1.0884,1.0884,1.0883,1.0885,1.0873,1.0886,1.0882,1.0902,1.0912,1.0913,1.0917,1.0905,1.0948,1.0953,1.0957,1.0971,1.0976,1.0909,1.0909,1.0909,1.0909,0,1.0919,1.0928,1.094,1.0941,1.0944,1.0958,1.0946,1.0951,1.0941,1.0935,1.095,1.0946,1.095,1.0953,1.0943,1.0972,1.0965,1.0951,1.093,1.0965,1.0978,1.0983,1.0912,1.0911,1.0911,1.091,0,0,1.0975,1.0968,1.0973,1.0974,1.097,1.0977,1.099,1.0994,1.0999,1.1,1.1011,1.102,1.1007,1.1009,1.0998,1.101,1.1043,1.0994,1.0994,1.1004,1.1075,1.1086,1.1092,1.1034,1.1035,1.1035,1.1075,0,1.1012,1.1033,1.1022,1.1045,1.1054,1.1035,1.1047,1.1046,1.1041,1.1048,1.1042,1.1049,1.1031,1.1032,1.1042,1.1037,1.1057,1.1033,1.1044,1.1045,1.1045,1.1099,1.111,1.1148,1.108,1.1081,1.1082,0,1.1057,1.1061,1.1085,1.1081,1.1084,1.1095,1.1099,1.1105,1.1104,1.11,1.1102,1.109,1.1103,1.1082,1.11,1.1085,1.1089,1.1087,1.1088,1.1088,1.1065,1.1101,1.116,1.1166,1.1089,1.1089,1.1088,0,1.1096,1.1107,1.1123,1.1124,1.112,1.1128,1.1127,1.1125,1.1129,1.1132,1.1134,1.1139,1.1142,1.1146,1.1135,1.1121,1.1155,1.1133,1.1152,1.1153,1.116,1.116,1.1221,1.1162,1.1162,1.1162,1.1162,0,1.1139,1.1155,1.1141,1.1151,1.1169,1.1156,1.1174,1.117,1.1169,1.1179,1.1163,1.1172,1.1158,1.1166,1.1158,1.1174,1.1175,1.1173,1.117,1.1174,1.1175,1.1176,1.1174,1.1164,1.1163,1.1163,1.1163,0,1.1186,1.1177,1.1194,1.1189,1.1188,1.1201,1.1197,1.1207,1.1201,1.1213,1.1215,1.1206,1.1215,1.1205,1.1213,1.1208,1.1231,1.1224,1.1231,1.1229,1.1249,1.1248,1.1313,1.1322,1.1258,1.1258,1.1259,0,1.1213,1.1225,1.1222,1.1228,1.1227,1.1236,1.124,1.1228,1.1233,1.1234,1.1244,1.1252,1.1257,1.1272,1.1266,1.1272,1.1266,1.1289,1.1267,1.1271,1.1268,1.1267,1.1269,1.1293,1.1294,1.1295,1.1295,0,1.1264,1.126,1.1266,1.1272,1.1277,1.1281,1.1284,1.1289,1.1277,1.1283,1.1292,1.1297,1.1305,1.1313,1.1318,1.1317,1.1305,1.1302,1.1307,1.1311,1.1315,1.1314,1.1244,1.1301,1.13,1.13,1.1299,1.1299,1.1303,1.1313,1.1313,1.1321,1.1322,1.1325,1.1334,1.133,1.1337,1.1344,1.1336,1.1348,1.1348,1.1353,1.1354,1.1363,1.1353,1.136,1.1362,1.1364,1.1367,1.1314,1.1364,1.1363,1.1363,1.1363,1.1363,0,1.1353,1.1352,1.136,1.1365,1.1372,1.136,1.1362,1.1369,1.1379,1.1381,1.1387,1.1398,1.1406,1.1402,1.1409,1.1417,1.1411,1.1419,1.1419,1.1419,1.1375,1.137,1.1424,1.1424,1.1424,1.1424,1.1424,1.1424,1.138,1.1397,1.1393,1.1411,1.141,1.1422,1.1424,1.1428,1.1429,1.1442,1.1449,1.1446,1.1445,1.1453,1.146,1.1458,1.1462,1.1472,1.1469,1.1428,1.1422,1.1416,1.1412,1.1473,1.1473,1.1512,1.1512,1.1512]}]]